COSMOS 2251 DEB

Satellite information

Favourite Embed

Satellite Type and Status

DEBRISIN ORBIT

Key statistics

Satellite COSMOS 2251 DEB at a glance.

Uptime

11868

Days in orbit

Revolutions

≈ 13.9

Per day

Orbit

LEO

Low Earth Orbit

Inclination

74.1

Latest

Satellite identification and parameters

Extended collection of information and parameters for COSMOS 2251 DEB.

Object identification

Identified? True

Debris? True

Object name: COSMOS 2251 DEB

International designator: 1993-036AE

Object number (NORAD): 33789

Object ID (CCSDS): 33789

Country: COMMONWEALTH OF INDEPENDENT STATES (CIS)

Current information (Y/N): Y

RCS size: MEDIUM

Orbital parameters

Period: 103.687 minutes

Inclination: 74.0648 deg

SMA: 7310.994 km

Apoapsis: 1108.478 km

Periapsis: 757.241 km

RAAN: 88.1847 deg

Eccentricy: 0.02402114

Argument of periapsis: 203.9212 deg

Mean anomaly: 174.0687 deg

Mean motion: 13.88794803 rev/day

Mean motion (dot): 0.0000183 rev/day2

B* drag term: 0.0012190458 1/REarth

Two-line elements (TLE)

Creation date: Dec. 12, 2025, 10:14 a.m.

Reference frame: TEME

Reference center: EARTH

Epoch: Dec. 12, 2025, 6:44 a.m. UTC

TLE line 0: 0 COSMOS 2251 DEB

TLE line 1: 1 33789U 93036AE 25346.28089859 .00001830 00000-0 12190-2 0 9997

TLE line 2: 2 33789 74.0648 88.1847 0240211 203.9212 174.0687 13.88794803850890

Live tracking on map

Real-time ground track for satellite COSMOS 2251 DEB.

In-orbit conjunctions

A list of the most updated potential collisions computed for object COSMOS 2251 DEB.

Target Orbit TCA Probability of collision Miss distance Type
CZ-6A DEB SSO 2025-09-02 11:53:55 0.0001541586 390.0 (m) DEBRIS
CZ-6A DEB LEO 2024-12-13 03:50:07 0.000208142 306.0 (m) DEBRIS
TRAAC LEO 2024-11-11 15:06:37 0.0002768419 427.0 (m) PAYLOAD
CZ-2C R/B SSO 2024-10-05 08:31:29 0.0002186027 46.0 (m) ROCKET BODY
MOS 1B (MOMO 1B) SSO 2024-09-10 11:29:35 0.0002470665 247.0 (m) PAYLOAD

Associated space launch

Military communications satellite. Destroyed in a collision with Iridium 33.

COSMOS 2251 DEB was lifted into orbit during the mission ‘Kosmos-3M | Strela-2M 51’, on board a Kosmos-3M space rocket.

The launch took place on June 16, 1993, 4:17 a.m. from 132/1 (132L).

For more information about the launch, click the button.

Launch to space Kosmos-3M | Strela-2M 51
Kosmos-3M | Strela-2M 51

Agency: N/A

Status: Launch Successful

Launch date: June 16, 1993, 4:17 a.m. UTC

Rocket: Kosmos-3M

Launch pad: 132/1 (132L)

Location: Plesetsk Cosmodrome, Russian Federation

...

Latest news about this satellite

There are no fresh news available about this satellite. Check back as we update our databases every day.


Newsletter sign-up

Weekly statistics, charts and insights to help you stay on top of the space industry.